sat.trackr.live / text

‹ back to catalog

STARLINK-6166

NORAD 56383 · 2023-061K

PAYLOAD ACTIVE UNKNOWN

§ Identity

Operator
Country
US
Launch date
2023-05-04
Launch site
AFETR
Launch vehicle
Mass (kg)
RCS (m²)

Purposes: comms

External: N2YO · Heavens-Above · Gunter

§ Orbital elements

Epoch: 2026-05-25T05:33:59.793120Z

Period
94.27 min
Inclination
43.0023°
Eccentricity
0.0001355
Mean motion
15.27581672 rev/d
Perigee alt
482.1 km
Apogee alt
484.0 km
Semi-major
6,861.2 km
B*
4.6037e-5
RAAN
125.8122°
Arg perigee
262.4741°
Mean anomaly
97.5957°
Rev number
16,845

§ Raw data

STARLINK-61661 56383U 23061K   26145.23194205  .00001005  00000+0  46037-4 0  99902 56383  43.0023 125.8122 0001355 262.4741  97.5957 15.27581672168450

JSON: /api/v1/satellites/56383 · /tle

For live sub-satellite position, see the globe view (requires WebGL).

§ Visibility from observer

Set your observer location to see the next 7 days of passes ≥ 10°. The values pass through the URL so the page stays shareable.

No JS? Fill the form by hand. The geolocation button needs JavaScript.